Presure
198 201 205 207 202 206 204 207 206 196 188 197 193 180 129 189 196 187 190 180 177 190 200 198 194 201 228 193 189 206 196 168 172 134 155 146 114 131 126 90 115 128 118 123 117 121 127 124 124
190 193 196 187 188 198 204 214 209 206 205 199 189 190 188 193 194 190 189 195 194 201 187 193 197 201 195 199 213 219 194 197 204 206 192 172 162 139 127 128 102 112 143 132 126 125 120 123 133
212 210 199 193 186 198 196 213 208 209 235 204 201 188 190 202 199 199 200 200 193 188 188 189 188 187 202 203 194 200 217 230 205 186 192 196 195 153 159 163 141 139 130 124 145 128 126 121 116
210 203 215 195 210 214 204 206 196 197 195 203 202 198 189 180 192 190 192 190 192 191 191 191 185 202 196 201 217 227 229 234 223 225 214 214 185 192 208 192 164 144 131 162 131 135 110 113 136
177 170 208 164 152 193 193 189 207 204 200 195 114 195 190 172 189 191 188 188 212 213 208 200 192 195 193 210 200 219 209 215 221 233 221 217 207 215 195 194 209 198 169 172 160 166 160 135 122
177 189 140 156 207 202 198 197 187 179 180 186 143 135 154 199 160 137 194 154 201 190 192 208 201 205 206 206 211 216 213 213 227 226 229 239 222 222 214 211 226 202 202 192 174 174 174 157 164
174 181 165 190 207 217 208 195 198 185 193 193 188 187 183 188 183 188 174 225 198 207 201 194 205 203 205 216 216 215 218 224 237 237 232 236 227 233 223 231 228 220 227 212 201 195 184 170 192
161 132 180 168 212 234 226 138 195 210 212 209 203 210 213 198 222 229 232 205 230 226 207 222 214 209 197 203 201 203 206 211 233 269 273 262 236 241 249 270 248 224 221 229 215 210 199 206 193
141 146 178 165 206 206 133 154 217 159 200 133 183 183 211 235 211 247 240 230 223 223 228 235 237 229 200 241 199 200 198 203 209 235 233 254 243 258 237 244 290 292 276 237 228 229 209 214 204
154 167 182 141 197 203 204 212 174 150 201 204 217 153 212 226 199 219 225 232 241 233 234 224 230 229 218 213 204 211 210 205 200 204 217 225 228 238 239 231 233 229 253 267 273 265 242 225 213
155 165 170 171 206 201 203 208 208 192 245 246 225 208 188 227 224 212 221 82 127 214 215 215 216 216 216 217 223 220 210 213 218 224 216 195 219 262 259 248 226 220 224 221 228 233 252 296 280
139 168 167 175 173 200 206 203 208 220 217 222 220 213 216 218 214 237 234 229 228 232 229 222 222 230 231 231 230 221 222 230 238 237 241 235 219 227 207 229 237 242 248 245 233 247 246 240 265
160 168 133 133 178 209 187 162 220 175 223 230 221 213 198 239 237 231 226 214 237 233 227 221 220 224 229 229 233 230 226 225 223 225 223 227 227 230 231 230 228 228 228 232 235 241 241 251 232
209 165 133 131 181 164 174 219 230 219 231 137 93 234 241 236 225 240 238 240 236 237 237 234 236 237 245 242 241 244 247 245 242 240 238 237 235 237 235 233 232 220 219 225 229 234 234 239 245
169 133 167 177 186 173 205 233 220 232 104 210 239 224 236 234 242 249 251 247 250 249 250 247 244 244 250 249 250 252 252 252 252 252 252 253 254 259 265 280 282 283 283 283 281 256 244 227 229
169 168 171 180 200 222 247 87 270 263 251 254 256 259 262 254 255 221 235 236 256 243 233 248 266 268 264 260 262 264 262 259 242 245 262 265 272 277 279 277 275 276 275 276 282 281 283 284 286
169 170 188 202 164 216 79 264 268 235 267 244 233 239 243 238 168 188 226 226 228 282 283 266 279 292 292 289 286 287 288 286 285 280 277 273 285 284 301 296 300 303 306 306 307 285 285 269 290
183 191 195 200 206 209 238 246 270 258 210 243 235 228 225 216 264 291 289 282 293 288 273 269 256 258 258 255 262 297 318 311 308 301 287 277 270 262 259 260 259 264 269 274 280 280 282 291 300
187 189 140 200 240 232 248 264 244 246 241 235 226 79 286 283 289 287 267 279 268 256 255 250 257 302 303 291 274 258 251 249 246 243 244 298 315 321 328 331 330 318 324 256 256 254 254 258 268
194 186 192 234 233 223 243 246 238 241 229 236 287 284 276 282 284 264 274 250 240 264 297 297 291 262 245 240 239 248 308 315 312 309 311 318 328 338 345 320 282 297 316 337 338 310 309 327 363
181 180 199 235 229 242 239 228 232 234 257 352 364 320 312 294 295 279 276 286 298 287 259 244 239 260 278 288 311 297 281 267 259 253 253 251 256 258 258 255 255 256 260 266 273 275 288 286 297
179 192 240 226 238 239 211 241 233 369 341 317 302 291 267 278 283 285 295 290 247 240 254 320 359 343 310 284 265 254 252 252 247 230 250 246 241 240 243 241 239 239 240 245 245 248 252 264 287
199 235 230 229 228 222 243 230 223 302 307 297 273 269 280 296 291 285 241 235 242 279 297 285 284 257 251 242 236 240 239 228 243 236 240 241 241 243 244 244 245 245 233 246 239 244 246 248 258
180 217 233 227 224 253 239 353 250 319 286 275 265 252 235 233 234 236 236 252 285 288 251 249 239 233 233 228 227 229 231 232 231 228 229 230 235 238 241 242 245 242 237 236 241 231 227 230 236
209 234 229 221 247 241 267 326 309 280 251 241 232 233 233 277 309 322 307 293 267 247 239 236 226 228 230 223 222 225 230 232 235 238 242 240 238 239 241 244 246 242 232 229 233 236 239 244 228
226 237 233 240 242 230 261 282 265 254 242 230 236 281 349 279 336 360 284 247 239 231 228 227 217 218 224 218 218 218 233 234 240 247 255 256 244 255 262 233 268 270 251 234 232 229 230 239 241
232 235 249 227 224 239 247 289 266 248 238 234 309 300 284 285 270 246 238 236 225 222 216 224 217 217 215 215 215 232 237 240 240 242 251 255 255 248 248 252 252 244 246 244 241 229 230 236 237
225 226 243 216 240 245 245 267 289 247 229 307 329 278 280 253 246 233 229 225 218 220 215 211 204 220 211 216 232 237 243 247 249 251 268 278 284 292 297 293 284 277 275 276 274 263 245 237 237
220 232 214 231 235 244 237 265 284 242 265 343 276 283 256 246 233 221 223 207 216 206 214 205 212 197 231 235 237 228 234 242 255 307 358 380 370 384 383 384 390 392 394 360 284 277 278 269 247
226 221 236 226 234 234 241 262 264 235 331 279 283 256 242 229 219 214 213 213 205 213 203 211 199 223 241 228 225 229 229 241 391 396 393 384 373 369 370 372 389 400 397 395 394 296 286 297 279
Wind_Speed
36 36 36 40 44 49 47 46 44 45 41 49 53 56 41 57 58 51 51 54 61 59 56 58 62 61 57 67 70 72 73 75 75 67 74 68 50 64 63 24 40 59 55 58 54 56 58 56 55
32 34 36 42 42 44 43 48 48 46 47 48 48 56 59 60 58 59 56 55 55 54 61 61 61 61 64 63 61 66 73 75 76 78 78 79 77 67 61 63 45 50 67 65 63 61 58 59 61
38 38 40 41 41 44 42 39 35 43 41 51 53 52 55 60 63 62 62 59 56 55 59 63 64 66 65 67 69 70 69 70 75 76 76 77 79 75 79 80 70 72 67 62 69 67 63 60 56
36 39 44 41 39 41 42 42 40 42 42 40 42 48 54 58 61 62 62 62 63 63 64 65 65 71 67 69 73 63 61 69 74 76 79 80 81 82 83 85 83 77 70 82 69 71 52 52 70
33 40 41 40 36 43 45 43 39 36 42 44 33 50 60 55 64 67 66 64 63 64 68 71 69 70 67 73 69 70 70 70 70 73 79 80 81 81 83 86 88 89 87 88 84 87 84 72 62
36 43 33 37 54 50 49 48 43 42 44 46 38 40 42 66 55 48 70 56 76 68 69 69 74 77 79 76 78 75 73 74 76 75 76 77 82 84 84 84 83 91 93 93 92 91 92 85 88
42 46 43 52 56 53 50 55 55 53 49 51 57 57 55 60 63 71 67 73 74 78 77 71 79 77 80 83 80 74 73 73 75 74 73 76 78 84 85 85 87 86 89 95 97 96 97 93 97
39 29 51 47 56 49 55 38 60 64 61 65 70 74 73 67 73 68 67 74 70 76 77 84 83 81 73 76 72 71 69 70 73 74 74 78 75 79 81 81 87 87 89 90 96 100 99 99 99
39 40 59 47 56 55 40 42 58 47 62 44 62 61 70 62 62 58 61 68 72 72 75 77 80 86 75 81 74 73 71 72 72 71 70 70 72 72 74 75 71 75 85 91 91 95 101 101 100
44 51 65 35 60 57 60 65 52 47 69 69 70 50 66 63 67 66 64 64 65 68 72 74 74 76 79 79 78 78 78 77 74 73 73 72 72 70 71 73 74 76 73 74 79 87 96 101 104
43 52 58 58 64 61 62 68 70 66 72 68 70 68 60 62 61 64 65 13 52 69 73 76 75 75 77 77 77 78 78 79 78 77 76 74 74 66 67 72 77 79 81 82 83 85 84 74 89
41 53 55 62 57 73 74 72 76 79 76 76 72 72 71 68 66 63 64 65 65 66 70 75 77 76 75 74 74 77 79 77 72 72 70 72 78 76 78 76 73 72 72 77 84 80 84 87 82
49 55 43 46 67 74 67 58 79 51 73 74 75 75 63 63 63 64 66 65 64 66 67 72 78 76 76 73 72 74 76 77 79 77 78 77 77 77 78 77 79 81 83 84 84 83 84 83 90
62 53 47 41 66 62 64 77 71 70 68 38 27 73 66 64 63 63 64 63 63 64 65 69 71 76 70 71 72 70 70 72 74 75 75 76 77 78 79 81 83 87 89 89 89 89 89 89 88
58 48 61 70 73 69 78 71 63 67 26 54 63 62 66 69 64 64 62 63 62 63 64 66 69 72 71 72 74 74 74 75 75 76 78 79 80 81 81 77 76 77 79 80 82 87 90 92 92
63 63 65 72 88 85 74 25 53 52 55 58 56 58 58 61 64 65 60 61 63 63 64 66 69 69 69 70 72 71 71 73 74 75 74 75 76 74 72 72 75 75 77 77 76 77 80 83 85
63 67 81 88 67 90 17 59 55 57 53 54 55 55 55 56 45 55 65 63 62 59 56 59 57 54 52 53 56 57 56 59 62 63 65 66 62 62 53 57 59 60 61 62 64 69 72 80 79
74 82 88 91 96 71 73 64 56 53 44 53 52 53 57 57 61 56 49 51 50 48 51 49 53 54 54 53 54 44 38 41 44 47 47 49 49 50 52 53 57 60 60 59 57 57 62 66 69
75 83 57 97 89 81 73 66 61 57 58 56 51 21 60 60 55 50 51 45 43 47 50 49 52 43 39 39 36 35 40 43 46 47 49 53 54 52 49 46 46 49 51 60 56 58 60 64 65
77 81 92 93 86 82 72 66 63 61 59 57 61 58 56 56 50 48 40 46 48 44 35 39 37 32 34 38 41 43 42 34 31 30 31 34 34 35 36 30 24 26 32 40 34 29 30 27 27
68 73 88 89 87 78 73 68 65 62 55 42 24 29 35 40 38 37 39 48 31 30 27 29 32 36 37 38 31 22 17 18 21 25 27 30 27 25 24 26 27 29 28 28 26 25 25 26 26
74 87 77 80 75 74 76 73 69 30 15 18 24 31 35 42 44 46 40 30 26 29 32 40 37 28 20 17 18 22 23 25 28 34 34 34 33 34 32 34 35 35 34 33 31 28 28 26 27
85 81 78 76 72 72 67 65 58 33 25 27 27 36 42 33 31 32 24 26 29 32 26 21 19 16 18 22 25 28 31 34 36 39 40 41 41 40 40 40 40 41 39 40 37 33 31 31 31
72 81 72 73 70 62 63 19 45 28 26 29 29 27 26 28 29 28 27 26 28 19 15 16 21 23 25 28 31 33 36 39 40 42 44 46 47 48 48 46 46 45 43 43 44 38 35 34 33
82 74 70 71 62 61 51 30 27 28 29 29 30 31 32 37 39 37 28 19 10 11 16 18 22 26 29 33 36 38 41 43 46 50 53 54 54 53 55 55 53 49 44 43 45 46 45 43 38
78 70 69 64 63 59 53 42 39 35 32 33 34 37 34 24 24 20 12 11 15 17 21 23 29 32 34 38 42 43 49 51 55 59 63 63 57 61 63 50 62 61 54 48 49 49 47 48 44
70 66 58 62 62 59 50 36 38 38 35 33 34 23 16 15 13 10 13 15 19 23 27 28 32 37 39 43 46 53 57 60 60 62 65 66 65 63 64 63 62 59 59 56 53 50 52 51 49
67 64 57 58 56 53 48 42 32 32 32 35 25 13 14 11 11 14 17 20 23 25 29 33 35 41 43 49 55 60 63 66 69 72 75 75 76 77 79 78 76 73 71 70 67 64 61 58 55
66 62 58 55 56 51 49 44 36 33 34 27 13 10 9 10 15 19 20 24 24 29 32 37 44 37 53 57 60 61 66 72 74 85 82 74 74 62 62 63 63 61 61 66 73 68 67 67 65
63 62 53 57 54 50 46 39 31 31 26 10 6 6 10 16 17 19 20 23 30 31 37 45 44 51 56 55 58 64 68 72 80 73 67 64 61 59 56 54 54 56 57 56 56 69 72 74 71
Wind_Direction
297 298 293 285 279 280 285 288 282 284 285 280 279 280 280 277 277 266 265 258 262 270 274 271 267 271 271 264 263 264 260 257 255 258 258 257 257 251 250 250 257 253 254 250 247 249 249 248 248
293 294 290 285 287 289 290 286 284 287 282 280 277 280 280 279 276 274 270 269 267 267 265 269 271 272 268 270 273 269 262 262 262 261 256 252 256 254 256 253 259 252 248 247 249 247 246 249 248
306 300 291 288 289 289 288 293 295 300 291 280 276 273 276 277 277 279 277 275 272 269 269 270 267 266 273 270 266 265 270 268 261 258 258 258 256 254 255 254 255 250 250 250 246 249 249 247 247
315 308 304 293 292 292 294 290 293 296 288 282 274 279 275 280 278 281 281 282 279 277 276 275 271 276 272 274 282 280 279 272 268 264 261 260 256 256 253 252 252 251 253 253 250 248 251 249 245
300 293 300 303 311 301 296 290 295 295 290 293 306 278 279 282 278 280 282 283 281 276 275 274 274 274 275 279 275 279 271 272 271 269 263 260 257 258 255 254 252 251 249 248 250 250 250 248 247
310 315 309 308 300 296 294 289 288 288 288 286 289 299 286 277 285 291 286 287 280 280 280 276 276 274 277 278 281 277 275 273 275 271 268 264 262 261 257 254 255 251 251 249 247 247 246 249 249
314 312 313 313 309 300 288 297 290 293 290 285 283 280 279 282 283 284 284 278 279 278 278 278 276 278 279 278 280 278 279 278 276 272 269 265 262 259 258 257 256 253 252 248 250 248 246 247 244
314 298 316 320 314 307 295 294 292 297 301 294 288 288 285 279 283 281 279 282 274 273 277 275 275 276 277 277 277 277 277 278 278 273 270 267 264 263 264 263 258 256 253 252 249 249 250 249 246
298 308 321 317 317 315 292 296 301 294 296 292 294 292 293 290 285 276 273 272 275 277 276 274 273 273 276 277 277 276 275 275 275 273 270 268 265 265 262 261 263 260 256 254 252 250 249 248 249
312 323 320 298 316 313 314 310 300 292 296 296 294 291 291 288 290 287 283 280 278 278 277 276 275 274 274 275 275 275 274 273 271 271 271 268 266 265 263 260 258 257 257 256 254 254 252 247 247
308 317 317 316 315 314 312 310 308 302 304 300 296 292 286 289 285 285 281 310 277 276 277 277 276 276 274 274 275 275 275 275 275 273 270 270 267 268 266 262 258 256 255 254 253 253 253 255 251
293 313 312 316 317 316 314 312 313 308 304 300 296 293 294 294 292 286 285 282 280 278 277 278 278 275 274 274 274 274 274 274 272 270 270 267 268 264 266 260 259 259 257 255 253 252 252 250 250
308 311 297 298 318 320 311 307 311 308 304 300 296 294 295 292 292 288 284 284 281 280 279 277 278 278 278 277 273 272 272 271 271 269 269 267 266 264 262 261 259 258 256 254 252 250 250 250 248
303 310 295 301 318 319 318 313 309 307 301 296 287 295 295 290 288 285 285 284 281 280 277 277 277 278 278 276 274 274 273 272 272 271 268 267 264 264 262 260 259 260 260 258 255 252 250 248 248
307 296 312 312 317 317 316 311 310 307 282 295 294 295 295 295 295 291 289 287 286 285 286 285 283 282 284 282 281 281 280 279 276 275 275 274 273 273 272 271 270 266 263 262 260 256 252 253 251
308 312 311 312 315 316 314 316 309 302 297 294 294 293 294 291 289 289 288 287 286 286 286 282 281 282 282 281 280 279 278 277 275 274 274 274 273 272 270 268 265 264 263 263 261 258 257 255 254
310 311 311 314 315 317 321 314 309 307 303 301 295 296 295 292 289 293 292 287 286 287 286 285 286 286 285 282 280 280 278 275 274 274 274 273 272 272 270 270 270 269 265 263 261 259 257 256 254
310 309 312 315 315 313 316 315 313 314 307 306 301 299 296 290 294 297 296 294 292 290 289 290 288 291 292 290 287 286 285 281 280 279 278 276 273 269 268 269 270 270 268 266 263 260 259 259 257
313 316 309 317 316 317 319 321 324 322 314 312 305 302 297 297 299 299 296 296 293 288 288 287 292 295 293 294 296 287 281 280 279 279 280 279 277 276 273 269 268 268 271 269 266 260 256 255 256
313 316 316 316 316 319 321 324 325 321 316 309 299 298 297 297 301 298 297 292 292 296 296 291 297 301 296 293 292 291 292 291 291 293 292 288 284 278 273 267 269 271 269 262 260 262 264 267 268
319 319 315 315 317 319 324 324 325 320 313 302 298 304 308 307 303 309 307 315 307 308 306 293 291 297 300 300 299 299 295 290 289 285 283 275 278 276 268 266 268 267 271 275 272 269 277 274 266
318 315 315 314 317 320 321 324 325 308 328 319 318 322 312 322 318 316 315 312 309 301 313 313 314 317 318 313 305 302 302 298 290 288 294 290 285 282 279 273 270 268 268 272 265 261 265 273 269
312 315 316 316 317 320 317 321 320 316 312 334 327 336 319 319 313 309 327 314 308 321 323 332 339 332 330 322 317 317 315 305 310 302 300 296 291 287 285 281 280 277 274 273 269 267 266 265 264
317 315 316 314 317 317 319 325 321 342 346 344 338 338 329 326 323 320 317 311 322 327 343 346 342 335 333 323 318 317 314 309 305 303 299 296 291 289 285 280 274 269 268 268 268 262 256 259 256
314 312 314 315 319 320 326 327 334 351 345 342 336 333 330 321 307 301 302 321 5 359 357 352 337 333 333 326 320 316 313 309 305 302 297 292 289 286 282 279 274 269 265 262 262 262 260 257 256
312 312 313 316 319 323 336 342 342 339 340 335 336 326 323 337 359 358 34 29 16 4 354 350 338 332 329 327 325 321 318 314 311 306 302 296 290 285 281 276 273 269 264 258 258 258 258 255 249
310 313 316 319 322 323 335 336 333 333 330 332 324 345 356 11 50 40 26 22 2 355 345 344 339 335 333 330 328 324 321 317 312 307 300 294 289 285 281 276 271 270 267 262 255 253 255 253 249
311 315 317 319 318 325 331 335 327 327 329 326 336 356 40 50 49 22 18 10 358 353 349 345 342 336 338 335 330 327 322 317 312 307 300 293 287 281 276 272 269 267 263 259 254 247 243 247 247
310 312 316 318 318 326 330 333 331 334 329 330 345 46 53 48 27 15 14 350 355 348 349 348 348 347 338 336 332 329 325 320 313 303 298 296 291 287 281 277 274 270 266 260 254 250 242 236 239
308 310 312 314 316 323 329 330 327 331 332 344 42 60 51 31 23 14 357 359 352 353 353 351 354 341 339 338 331 331 327 320 313 308 304 297 291 288 283 277 272 267 262 256 253 249 244 237 232